Regional Weather Roundup
Issued by NWS State College, PA

Home | Current Version | Previous Version | Graphics & Text | Print | Product List | Glossary On
Versions: 1 2 3 4 5 6 7 8 9 10 11 12 13 14 15 16 17 18 19 20 21 22 23 24 25 26 27 28 29 30 31 32 33 34 35 36 37 38 39 40 41 42 43 44 45 46 47 48 49 50
000
ASUS41 KCTP 220110
RWRCTP

REGIONAL WEATHER ROUNDUP
NATIONAL WEATHER SERVICE STATE COLLEGE PA
800 PM EST WED FEB 21 2018

Note: "fair" indicates few or no clouds below 12,000 feet with no
significant weather and/or obstructions to visibility.

* = STATION THAT DOES NOT REPORT PRECIPITATION /E.G. RAIN...SNOW...ETC/
    THUNDER OR FOG.

PAZ002>004-007>009-013>016-020>023-029>032-220200-
WESTERN PENNSYLVANIA

CITY           SKY/WX    TMP DP  RH WIND       PRES   REMARKS
ERIE           FAIR      35  29  78 NE3       30.58R
MEADVILLE      MIX PCPN  32  31  96 N6        30.53R
FRANKLIN*      LGT RAIN  36  32  85 N9        30.51R
NEW CASTLE     LGT RAIN  37  36  96 N6        30.54R
BEAVER COUNTY  CLOUDY    37  34  87 N12       30.50R
BUTLER*        CLOUDY    41  37  86 N7        30.49S
PITTSBURGH INT CLOUDY    44  38  79 N10       30.48R
PITTSBURGH     CLOUDY    43  38  82 N10       30.46R
INDIANA*       CLOUDY    48  46  93 VRB7G15   30.49R
LATROBE        CLOUDY    48  48 100 N10       30.46R FOG
WASHINGTON CO* CLOUDY    43  39  86 N9        30.50S
$$

PAZ004>006-010>012-017>019-024>028-033>037-041-042-045-046-049>053-220200-
CENTRAL PENNSYLVANIA

CITY           SKY/WX    TMP DP  RH WIND       PRES   REMARKS
BRADFORD       CLOUDY    37  35  92 N8        30.48R
DUBOIS         CLOUDY    41  37  86 N8        30.46R
CLEARFIELD     CLOUDY    48  43  82 N7        30.45R
JOHNSTOWN      FOG       49  47  93 NW9       30.41R VSB 1/4
ALTOONA        CLOUDY    56  51  84 N8        30.40R
STATE COLLEGE  MOCLDY    54  48  82 NW9       30.42R
WILLIAMSPORT   CLOUDY    50  38  63 N7        30.46R
SELINSGROVE    CLOUDY    53  46  77 N13G23    30.43R
FT INDIANTOWN  MOCLDY    65  52  62 N16G29    30.34R
CAPITAL CITY   CLOUDY    69  54  58 N6        30.33R
HARRISBURG     CLOUDY    69  54  58 N9        30.32R
YORK           CLOUDY    68  60  75 N7        30.32R
$$

PAZ038>040-043-044-047-048-054-055-060>062-067>071-220200-
EASTERN PENNSYLVANIA

CITY           SKY/WX    TMP DP  RH WIND       PRES   REMARKS
SCRANTON       CLOUDY    46  42  86 N13       30.45R
MOUNT POCONO   CLOUDY    46  43  89 NW18G29   30.38R
ALLENTOWN      LGT RAIN  61  52  72 N8        30.36R
QUAKERTOWN*    CLOUDY    63  63 100 NW8G17    30.35R FOG
READING        CLOUDY    65  61  87 N8        30.33R
LANCASTER      CLOUDY    67  59  75 N13       30.32R
COATESVILLE    FAIR      68 -40   1 VRB3      30.33R
POTTSTOWN      CLOUDY    66  65  96 NW7       30.34R
BLUE BELL      MOCLDY    63  63 100 CALM      30.31S
DOYLESTOWN     MOCLDY    68  63  84 W7        30.30R
WILLOW GROVE   NOT AVBL
NORTH PHILA    CLOUDY    73  62  68 SW6       30.30R
PHILADELPHIA   FAIR      68  59  73 VRB6      30.30R
$$




USA.gov is the U.S. government's official web portal to all federal, state and local government web resources and services.